Jefferson, NC

5:44 AM EST on November 15, 2019 (GMT -0500)
Ashe County

Weather History for KGEV - September, 2019

Change the Weather History Date:

Thursday, September 12, 2019

  Actual Average Record
Temperature  
Mean Temperature 74 °F -  
Max Temperature 84 °F 74 °F 120 °F (2008)
Min Temperature 64 °F 51 °F 34 °F (1993)
Cooling Degree Days 9    
Growing Degree Days 24 (Base 50)    
Moisture  
Dew Point 64 °F    
Average Humidity 71    
Maximum Humidity 95    
Minimum Humidity 43    
Precipitation  
Precipitation 0.00 in - - ()
Sea Level Pressure  
Sea Level Pressure 30.29 in    
Wind  
Wind Speed 2 mph ()    
Max Wind Speed 7 mph    
Max Gust Speed -    
Visibility 10.0 miles    
Events      
Averages and records for this station are not official NWS values.
T = Trace of Precipitation, MM = Missing Value Source: Averaged Metar Reports

Daily Weather History Graph

Daily Weather History Graph

Search for Another Location

Airport or City:

Astronomy

Sep. 12, 2019 Rise Set
Actual Time 7:05 AM EDT 7:37 PM EDT
Civil Twilight 6:39 AM EDT 8:03 PM EDT
Nautical Twilight 6:09 AM EDT 8:34 PM EDT
Astronomical Twilight 5:37 AM EDT 9:05 PM EDT
Moon 7:17 PM EDT (9/12) 5:28 AM EDT (9/12)
Length of Visible Light 13h 24m
Length of Day
12h 32m
Waxing Gibbous, 98% of the Moon is Illuminated
Sep 12
Waxing Gibbous
Sep 14
Full
Sep 21
Last Quarter
Sep 28
New
Oct 5
First Quarter

Hourly Weather History & Observations

Time (EDT) Temp. Heat Index Dew Point Humidity Pressure Visibility Wind Dir Wind Speed Gust Speed Precip Events Conditions
12:15 AM 67.5 °F - 63.7 °F 88% 30.31 in 10.0 mi WSW 3.5 mph - N/A   Clear
12:35 AM 66.2 °F - 63.3 °F 90% 30.31 in 10.0 mi Calm Calm - N/A   Clear
1:15 AM 66.7 °F - 63.9 °F 90% 30.30 in 10.0 mi Calm Calm - N/A   Mostly Cloudy
1:35 AM 64.9 °F - 63.3 °F 94% 30.30 in 10.0 mi Calm Calm - N/A   Overcast
1:55 AM 65.5 °F - 63.0 °F 92% 30.30 in 10.0 mi Calm Calm - N/A   Overcast
2:35 AM 66.4 °F - 63.5 °F 90% 30.29 in 10.0 mi Calm Calm - N/A   Clear
2:55 AM 64.8 °F - 63.3 °F 95% 30.28 in 10.0 mi WSW 3.5 mph - N/A   Clear
3:55 AM 70.5 °F - 63.9 °F 79% 30.26 in 10.0 mi WSW 4.6 mph - N/A   Clear
4:15 AM 69.3 °F - 63.7 °F 82% 30.27 in 10.0 mi Calm Calm - N/A   Clear
4:35 AM 67.8 °F - 63.7 °F 87% 30.27 in 10.0 mi Calm Calm - N/A   Clear
4:55 AM 64.8 °F - 62.4 °F 92% 30.27 in 10.0 mi Calm Calm - N/A   Clear
5:35 AM 68.0 °F - 63.9 °F 87% 30.28 in 10.0 mi Calm Calm - N/A   Clear
5:55 AM 65.5 °F - 63.0 °F 92% 30.29 in 10.0 mi Calm Calm - N/A   Clear
6:15 AM 66.2 °F - 63.1 °F 90% 30.29 in 10.0 mi Calm Calm - N/A   Clear
6:35 AM 65.1 °F - 63.3 °F 94% 30.30 in 10.0 mi Calm Calm - N/A   Clear
6:55 AM 65.7 °F - 63.5 °F 93% 30.30 in 10.0 mi Calm Calm - N/A   Clear
7:15 AM 67.8 °F - 63.5 °F 86% 30.31 in 10.0 mi WSW 3.5 mph - N/A   Clear
7:35 AM 68.7 °F - 64.2 °F 86% 30.31 in 10.0 mi WSW 4.6 mph - N/A   Scattered Clouds
7:55 AM 69.3 °F - 64.0 °F 83% 30.31 in 10.0 mi WSW 5.8 mph - N/A   Clear
8:15 AM 71.6 °F - 64.4 °F 78% 30.32 in 10.0 mi WSW 4.6 mph - N/A   Clear
8:35 AM 68.9 °F - 64.8 °F 87% 30.32 in 10.0 mi Calm Calm - N/A   Clear
8:55 AM 68.7 °F - 65.1 °F 88% 30.33 in 10.0 mi Calm Calm - N/A   Clear
9:15 AM 72.5 °F - 65.3 °F 78% 30.32 in 10.0 mi Calm Calm - N/A   Clear
9:35 AM 73.9 °F - 65.8 °F 76% 30.33 in 10.0 mi Calm Calm - N/A   Clear
9:55 AM 75.4 °F - 65.1 °F 70% 30.33 in 10.0 mi WSW 3.5 mph - N/A   Clear
10:15 AM 75.6 °F - 64.9 °F 69% 30.33 in 10.0 mi WSW 6.9 mph - N/A   Clear
10:55 AM 76.8 °F - 65.3 °F 67% 30.33 in 10.0 mi WSW 5.8 mph - N/A   Clear
11:15 AM 77.2 °F - 64.9 °F 66% 30.33 in 10.0 mi Calm Calm - N/A   Clear
11:35 AM 78.6 °F - 66.2 °F 66% 30.32 in 10.0 mi Calm Calm - N/A   Scattered Clouds
11:55 AM 77.5 °F - 66.0 °F 68% 30.32 in 10.0 mi Calm Calm - N/A   Mostly Cloudy
12:35 PM 78.6 °F - 66.2 °F 66% 30.31 in 10.0 mi Calm Calm - N/A   Mostly Cloudy
12:55 PM 80.4 °F 82.3 °F 65.3 °F 60% 30.31 in 10.0 mi WSW 3.5 mph - N/A   Clear
1:15 PM 82.8 °F 84.3 °F 64.6 °F 54% 30.31 in 10.0 mi WSW 3.5 mph - N/A   Mostly Cloudy
1:35 PM 81.7 °F 83.0 °F 63.5 °F 54% 30.30 in 10.0 mi WSW 3.5 mph - N/A   Scattered Clouds
1:55 PM 81.3 °F 82.7 °F 63.5 °F 55% 30.29 in 10.0 mi WSW 4.6 mph - N/A   Mostly Cloudy
2:15 PM 81.7 °F 82.3 °F 61.0 °F 49% 30.29 in 10.0 mi WSW 3.5 mph - N/A   Scattered Clouds
2:55 PM 83.5 °F 84.5 °F 63.1 °F 50% 30.28 in 10.0 mi WSW 3.5 mph - N/A   Mostly Cloudy
3:15 PM 82.6 °F 83.2 °F 61.9 °F 49% 30.27 in 10.0 mi WSW 3.5 mph - N/A   Mostly Cloudy
3:55 PM 82.9 °F 83.2 °F 60.1 °F 46% 30.27 in 10.0 mi WSW 3.5 mph - N/A   Clear
4:15 PM 84.0 °F 83.8 °F 59.5 °F 43% 30.26 in 10.0 mi WSW 6.9 mph - N/A   Clear
4:35 PM 84.0 °F 83.8 °F 59.5 °F 43% 30.25 in 10.0 mi WSW 5.8 mph - N/A   Scattered Clouds
4:55 PM 83.1 °F 83.5 °F 61.0 °F 47% 30.25 in 10.0 mi WSW 3.5 mph - N/A   Scattered Clouds
5:15 PM 82.4 °F 83.4 °F 62.4 °F 51% 30.25 in 10.0 mi WSW 3.5 mph - N/A   Scattered Clouds
5:35 PM 82.4 °F 83.4 °F 62.6 °F 51% 30.24 in 10.0 mi WSW 4.6 mph - N/A   Clear
5:55 PM 82.6 °F 83.6 °F 62.6 °F 51% 30.25 in 10.0 mi WSW 3.5 mph - N/A   Mostly Cloudy
6:15 PM 82.4 °F 83.5 °F 63.0 °F 52% 30.25 in 10.0 mi WSW 4.6 mph - N/A   Overcast
6:35 PM 80.8 °F 82.0 °F 62.8 °F 54% 30.26 in 10.0 mi Calm Calm - N/A   Scattered Clouds
6:55 PM 80.2 °F 81.6 °F 63.1 °F 56% 30.26 in 10.0 mi WSW 3.5 mph - N/A   Clear
7:15 PM 79.0 °F - 63.7 °F 59% 30.26 in 10.0 mi WSW 3.5 mph - N/A   Clear
7:35 PM 79.0 °F - 63.5 °F 59% 30.26 in 10.0 mi Calm Calm - N/A   Clear
7:55 PM 75.6 °F - 64.0 °F 67% 30.26 in 10.0 mi Calm Calm - N/A   Clear
8:15 PM 75.2 °F - 64.0 °F 68% 30.27 in 10.0 mi Calm Calm - N/A   Clear
8:35 PM 76.3 °F - 65.5 °F 69% 30.27 in 10.0 mi Calm Calm - N/A   Clear
8:55 PM 75.6 °F - 65.3 °F 70% 30.28 in 10.0 mi Calm Calm - N/A   Clear
9:15 PM 73.4 °F - 64.8 °F 74% 30.29 in 10.0 mi Calm Calm - N/A   Clear
9:35 PM 74.7 °F - 62.6 °F 66% 30.29 in 10.0 mi WSW 3.5 mph - N/A   Clear
9:55 PM 74.7 °F - 62.6 °F 66% 30.29 in 10.0 mi Calm Calm - N/A   Clear
10:15 PM 74.8 °F - 62.2 °F 65% 30.29 in 10.0 mi Calm Calm - N/A   Clear
10:35 PM 70.0 °F - 63.9 °F 81% 30.29 in 10.0 mi Calm Calm - N/A   Clear
10:55 PM 73.8 °F - 63.3 °F 70% 30.29 in 10.0 mi Calm Calm - N/A   Clear
11:15 PM 70.5 °F - 63.5 °F 78% 30.29 in 10.0 mi Calm Calm - N/A   Clear
11:35 PM 69.4 °F - 64.0 °F 83% 30.29 in 10.0 mi Calm Calm - N/A   Scattered Clouds
11:55 PM 68.4 °F - 64.2 °F 87% 30.29 in 10.0 mi Calm Calm - N/A   Scattered Clouds